{"data":{"norad_id":62088,"epoch":"2026-05-25T03:31:00.304320Z","epoch_age_seconds":62070,"freshness":"FRESH","line1":"1 62088U 24220A   26145.14653130  .00226534  00000+0  17199-2 0  9995","line2":"2 62088  42.9997 302.5919 0000476   4.1587 355.9284 15.70858086 87073","mean_motion":15.70858086,"eccentricity":4.76e-5,"inclination_deg":42.9997,"raan_deg":302.5919,"arg_perigee_deg":4.1587,"mean_anomaly_deg":355.9284,"bstar":0.0017199,"rev_number":8707,"period_min":91.669643033559,"perigee_km":356.12280286612,"apogee_km":356.76393491724,"semimajor_km":6734.5803688917,"source":"CELESTRAK","updated_at":"2026-05-25T13:38:19.556722Z"}}